Location: Austin
(30.3000°N, 97.7500°W)
Time: 10:42:48
(UTC-05:00)

Daily predictions for brighter satellites

Satellite Brightness Start Highest point End
(mag) Time Altitude Azimuth Time Altitude Azimuth Time Altitude Azimuth
Cosmos 1656 Rocket 4.5 20:35:28 10° NNW 20:40:50 55° WSW 20:46:16 10° S
Cosmos 1633 2.7 20:39:22 10° SSE 20:42:46 48° E 20:46:11 10° NNE
FALCON 9 DEB 3.9 20:42:00 10° S 20:45:07 31° SE 20:48:13 10° ENE
CSL-04 Debris 4.4 20:39:59 10° S 20:45:29 80° WSW 20:50:57 10° NNW
Nadezhda 3 Rocket 4.4 20:40:18 10° N 20:46:27 70° W 20:52:32 10° S
Cosmos 2218 Rocket 4.1 20:41:57 10° S 20:47:59 57° E 20:54:00 10° NNE
Cosmos 1515 Rocket 4.3 20:48:45 10° NNE 20:52:50 35° E 20:56:54 10° SSE
DMSP B5D2-2 4.5 20:49:09 10° NNE 20:54:04 41° E 20:58:58 10° SSE
Iridium 2 3.6 20:52:22 10° N 20:56:08 79° E 20:59:51 10° S
ATLAS 5 CENTAUR R/B 4.1 20:53:23 10° N 20:57:20 17° NE 21:01:35 10° E
Cosmos 1833 Rocket 3.4 20:53:25 10° SSE 20:58:13 30° ESE 21:03:02 10° NE
Cosmos 1151 Rocket 2.9 20:54:09 10° N 20:58:25 84° E 21:02:41 10° S
YAOGAN 1 4.5 20:55:24 10° SSW 20:59:15 32° W 21:03:08 10° NW
Cosmos 2251 Rocket 3.6 20:55:03 10° SSW 21:00:16 88° WNW 21:05:33 10° NNE
Meteor 2-12 Rocket 4.5 20:55:01 10° S 21:01:10 87° E 21:07:21 10° N
Cosmos 864 Rocket 4.5 21:00:46 10° S 21:07:04 78° E 21:13:23 10° N
KM-V1 4.2 21:05:03 10° W 21:10:20 78° N 21:12:33 16° E
Cosmos 614 Rocket 4.1 21:11:21 10° S 21:16:15 49° ESE 21:21:14 10° NNE
Cosmos 1743 Rocket 3.6 21:14:36 10° S 21:19:00 86° W 21:23:29 10° N
Skynet4D Del rocket 3.9 21:14:34 10° WSW 21:19:43 47° SSE 21:23:40 18° E
Cosmos 1862 3.6 21:17:34 10° SSE 21:21:25 45° E 21:25:17 10° NNE
Sakura Rocket 4.3 21:15:03 10° W 21:21:33 44° SSW 21:24:55 19° SE
USA 186 1.1 21:20:09 16° S 21:21:54 72° WSW 21:24:11 10° NNW
FREGAT/IRIS 2.1 21:21:40 21° SSE 21:23:14 77° ENE 21:25:52 10° N
SJ-6B 2.9 21:20:23 12° SSE 21:24:04 67° ENE 21:28:06 10° N
Cosmos 1727 Rocket 4.2 21:20:04 10° N 21:26:14 52° E 21:31:31 14° SSE
Sich 1 3.8 21:25:13 20° SE 21:27:31 33° E 21:31:30 10° NNE
Cosmos 972 Rocket 4.3 21:28:14 10° N 21:32:53 42° ENE 21:35:07 26° SE
CZ-2C R/B 3.6 21:29:36 10° NNE 21:34:10 69° ESE 21:38:37 10° S
COSMOS 2406 3.5 21:31:46 10° SSW 21:37:30 73° WNW 21:43:15 10° NNE
Cosmos 1500 Rocket 4.4 21:34:10 10° SSW 21:38:20 50° W 21:42:32 10° N
GPS 2-17 Rocket1 4.4 21:37:44 10° SW 21:41:08 21° S 21:41:41 21° S
Resurs 1-3 3.7 21:43:06 33° SE 21:44:48 55° ENE 21:49:05 10° N
IRIDIUM 106 4.2 21:40:38 12° S 21:45:24 72° E 21:50:36 10° N
Cosmos 1821 Rocket 3.9 21:39:48 10° S 21:45:49 65° E 21:51:55 10° NNE
NOSS 3-2 (A) 3.6 21:42:44 10° S 21:47:39 36° ESE 21:52:58 10° NE
Cosmos 1666 Rocket 4.0 21:49:49 38° E 21:49:51 38° E 21:53:51 10° NNE
Cosmos 2082 Rocket 2.3 21:46:15 10° S 21:51:47 54° ESE 21:57:18 10° NNE
Ariane Rocket 4.0 21:49:25 10° S 21:54:15 45° W 21:59:05 10° NNW
Cosmos 1190 Rocket 3.9 21:53:02 10° S 21:58:14 74° ESE 22:03:31 10° NNE
Cosmos 1782 4.2 21:56:06 10° NNW 21:59:48 36° W 22:03:05 12° SSW
Gbstr 26 Del rocket 4.0 21:57:11 10° WNW 22:00:29 30° SW 22:01:23 27° SSW
USA 267 4.3 21:54:31 10° NNE 22:00:40 45° NW 22:06:49 10° WSW
Meteor 2-6 Rocket 4.1 21:55:12 10° N 22:00:46 89° E 22:03:57 28° S
Cosmos 407 Rocket 3.5 21:55:33 10° SSW 22:00:53 82° WNW 22:06:13 10° NNE
Cosmos 1805 Rocket 4.0 21:57:08 10° SSW 22:01:28 61° W 22:05:51 10° N
Cosmos 1992 Rocket 4.5 22:00:18 10° NNW 22:05:25 57° WSW 22:08:20 25° S
SL-4 R/B 4.5 22:02:51 10° W 22:06:04 22° NW 22:09:07 10° NNE
BREEZE-M TANK 4.5 21:45:28 10° SW 22:07:59 49° SSE 22:10:32 34° E
MetOp-B 4.4 22:11:12 44° E 22:11:40 45° ENE 22:16:45 10° N
Cosmos 389 Rocket 2.9 22:10:54 10° N 22:13:42 56° NNW 22:13:42 56° NNW
Cosmos 2239 Rocket 4.4 22:09:41 14° S 22:14:58 82° W 22:21:08 10° N
Cosmos 2123 Rocket 4.4 22:10:44 10° N 22:16:35 42° E 22:16:55 41° E
CZ-3A R/B 3.7 21:48:24 10° W 22:18:38 62° SSW 22:22:15 40° SE
Cosmos 1605 Rocket 4.3 22:19:37 42° E 22:19:37 42° E 22:25:03 10° NNE
Cosmos 1000 Rocket 4.3 22:13:29 10° N 22:19:44 80° E 22:21:37 47° SSE
Cosmos 1812 3.0 22:18:40 10° N 22:22:04 63° NW 22:22:04 63° NW
Cosmos 1633 Rocket 3.1 22:23:13 72° NNE 22:23:13 72° NNE 22:27:14 10° N
Cosmos 1140 Rocket 3.9 22:20:38 10° SSW 22:25:47 61° WNW 22:30:59 10° N
Meteor 1-27 Rocket 3.7 22:19:52 10° N 22:25:48 72° E 22:26:39 62° SE
USA 32 4.4 22:35:00 50° NE 22:35:00 50° NE 22:39:09 10° NNE
Cosmos 1980 Rocket 3.4 22:30:01 10° N 22:34:09 28° NE 22:34:09 28° NE
Resurs 01 Rocket 2.1 22:35:23 55° WSW 22:35:27 55° W 22:39:47 10° NNW
Cosmos 1707 Rocket 4.2 22:38:06 10° N 22:41:29 52° NNW 22:41:29 52° NNW
ATLAS 5 CENTAUR R/B 2.5 22:36:13 10° NNW 22:42:27 78° WSW 22:43:30 64° S
Landsat 7 4.4 22:44:32 49° N 22:44:32 49° N 22:48:05 10° N
USA 238 DEB 3.6 22:36:50 10° SSW 22:43:22 78° WNW 22:50:09 10° NNE
USA 238 3.6 22:36:57 10° SSW 22:43:29 79° WNW 22:50:15 10° NNE
Cosmos 1867 4.4 22:39:07 10° SW 22:44:19 48° WNW 22:49:35 10° NNE
Cosmos 1697 Rocket 2.7 22:44:57 10° NNW 22:50:02 73° N 22:50:02 73° N
CENTAUR R/B 3.2 23:13:03 42° NNE 23:13:03 42° NNE 23:17:20 10° NNE
ERS-1 Rocket 4.3 23:16:09 34° N 23:16:09 34° N 23:18:57 10° N
Terra 4.0 23:35:35 21° N 23:35:35 21° N 23:37:13 10° N
SL-16 R/B 4.2 23:29:30 10° N 23:31:42 19° NNE 23:31:42 19° NNE
